Flag for Germany Weather past 2 weeks in Meerbusch, North Rhine-Westphalia, Germany

Now
66 °F

Passing clouds.


Feels Like: 66 °F
Forecast: 54 / 68 °F
Wind: 15 mph from Southwest

Location: Duesseldorf

Current Time: Jun 3, 2015 at 1:59:01 AM

Latest Report: Jun 3, 2015 at 1:20 AM


Visibility: N/A

Pressure: 29.95 "Hg

Humidity: 64%

Dew point: 54 °F

Location of MeerbuschLocation

Historic Weather in Meerbusch — Graph

°F

Meerbusch temperature yesterday

Maximum temperature yesterday: 70 °F (at 6:20 PM)
Minimum temperature yesterday: 54 °F (at 12:20 AM)
Average temperature yesterday: 61 °F

Past Weeks' High & Low Weather Summary

 TemperatureHumidityPressure
High70 °F (May 22, 3:50 PM)100% (May 29, 12:50 AM)30.33 "Hg (May 29, 12:50 AM)
Low37 °F (May 21, 4:20 AM)33% (May 22, 3:50 PM)29.68 "Hg (May 19, 12:20 AM)
Average56 °F68%30.02 "Hg
* Reported May 19 12:20 AM — Jun 3 12:20 AM, Meerbusch, Weather by CustomWeather, © 2015

Note: Actual official high and low records may vary slightly from our data, if they occured in-between our weather recording intervals... More about our weather records

Advertising

Meerbusch weather history for previous 24 hours

 ConditionsComfort  
Time TempWeatherWind HumidityBarometerVisibility
12:20 AM
Wed, Jun 3
66 °FPartly cloudy.13 mph68%29.95 "HgN/A
11:20 PM
Tue, Jun 2
64 °FPassing clouds.9 mph73%29.95 "HgN/A
10:50 PM63 °FPassing clouds.9 mph77%29.95 "HgN/A
10:20 PM63 °FPassing clouds.9 mph77%29.95 "HgN/A
9:50 PM64 °FPassing clouds.10 mph68%29.92 "HgN/A
9:20 PM68 °FScattered clouds.16 mph60%29.92 "HgN/A
8:50 PM68 °FScattered clouds.15 mph60%29.92 "HgN/A
8:20 PM70 °FPartly sunny.16 mph60%29.92 "HgN/A
7:50 PM68 °FPartly sunny.10 mph64%29.92 "HgN/A
7:20 PM68 °FPartly sunny.13 mph64%29.89 "HgN/A
6:50 PM70 °FPartly sunny.15 mph57%29.89 "HgN/A
6:20 PM70 °FPartly sunny.17 mph57%29.89 "HgN/A
5:50 PM68 °FPartly sunny.17 mph60%29.89 "HgN/A
5:20 PM68 °FPartly sunny.15 mph60%29.89 "HgN/A
4:50 PM68 °FPartly sunny.16 mph60%29.89 "HgN/A
4:20 PM68 °FPartly sunny.21 mph60%29.89 "HgN/A
3:50 PM66 °FBroken clouds.16 mph64%29.89 "HgN/A
3:20 PM66 °FPartly sunny.21 mph64%29.89 "HgN/A
2:50 PM66 °FPartly sunny.21 mph64%29.86 "HgN/A
2:20 PM66 °FPartly sunny.22 mph64%29.86 "HgN/A
1:50 PM66 °FPartly sunny.21 mph64%29.86 "HgN/A
1:20 PM64 °FPartly sunny.18 mph68%29.86 "HgN/A
12:50 PM63 °FPartly sunny.14 mph68%29.86 "HgN/A
12:20 PM61 °FPartly sunny.15 mph68%29.86 "HgN/A
11:50 AM61 °FPartly sunny.12 mph68%29.86 "HgN/A
11:20 AM59 °FLight rain. Partly sunny.12 mph68%29.86 "HgN/A
10:50 AM61 °FPartly sunny.14 mph63%29.86 "HgN/A
10:20 AM59 °FPartly sunny.15 mph68%29.86 "HgN/A
9:50 AM59 °FPartly sunny.15 mph68%29.86 "HgN/A
9:20 AM57 °FPartly sunny.15 mph77%29.86 "HgN/A
8:50 AM57 °FPartly sunny.15 mph77%29.86 "HgN/A
8:20 AM57 °FSunny.15 mph77%29.86 "Hg10 mi
7:50 AM55 °FSunny.14 mph82%29.86 "Hg10 mi
7:20 AM55 °FLight rain. Clear.13 mph82%29.86 "HgN/A
6:50 AM55 °FLight rain. Clear.14 mph77%29.86 "HgN/A
6:20 AM55 °FLight rain. Clear.16 mph77%29.86 "HgN/A
5:20 AM55 °FLight rain. Clear.16 mph72%29.86 "HgN/A
4:50 AM55 °FClear.14 mph67%29.86 "Hg10 mi
4:20 AM55 °FClear.16 mph63%29.86 "Hg10 mi
3:50 AM55 °FClear.14 mph63%29.89 "Hg10 mi
3:20 AM55 °FClear.13 mph63%29.89 "Hg10 mi
2:50 AM55 °FClear.13 mph63%29.92 "Hg10 mi
2:20 AM55 °FClear.10 mph63%29.92 "Hg10 mi
1:50 AM55 °FClear.10 mph63%29.92 "Hg10 mi
1:20 AM55 °FClear.9 mph63%29.92 "Hg10 mi
Weather by CustomWeather, © 2015

See weather overviewHow to use our weather pages